Location: Hamburg
(53.5500°N, 10.0000°E)
Time: 13:33:46
(UTC+01:00)

Vanguard 1 Rocket - Visible Passes

Search period start: 24 February 2017 00:00
Search period end: 06 March 2017 00:00
Orbit: 650 x 4227 km, 34.3° (Epoch: 22 February)

Date Brightness Start Highest point End Pass type
(mag) Time Alt. Az. Time Alt. Az. Time Alt. Az.
24 Feb 10.3 19:57:31 10° SSW 20:14:48 30° SSE 20:20:27 24° SE visible
24 Feb 10.3 22:26:15 10° WSW 22:37:46 29° SSW 22:37:46 29° SSW visible
25 Feb 10.6 18:45:16 10° SSW 19:02:22 26° SSE 19:13:29 12° ESE visible
25 Feb 10.1 21:12:00 10° SW 21:29:26 34° S 21:30:48 34° S visible
25 Feb 10.8 23:42:41 10° WSW 23:48:06 19° WSW 23:48:06 19° WSW visible
26 Feb 10.2 19:58:17 10° SW 20:17:10 33° SSE 20:23:48 25° SE visible
26 Feb 10.3 22:27:58 10° WSW 22:41:06 32° SSW 22:41:06 32° SSW visible
27 Feb 10.6 18:45:28 10° SSW 19:04:34 30° SSE 19:16:46 13° ESE visible
27 Feb 10.0 21:13:25 10° WSW 21:31:51 37° S 21:34:04 35° SSE visible
27 Feb 10.7 23:44:50 10° WSW 23:51:22 20° WSW 23:51:22 20° WSW visible
28 Feb 10.2 19:59:21 10° SW 20:19:29 37° S 20:27:01 26° SE visible
28 Feb 10.2 22:29:47 10° WSW 22:44:19 33° SSW 22:44:19 33° SSW visible
01 Mar 10.6 18:46:07 10° SW 19:06:43 34° SSE 19:19:56 13° ESE visible
01 Mar 10.0 21:14:59 10° WSW 21:34:12 38° S 21:37:14 36° SSE visible
01 Mar 10.7 23:47:05 10° W 23:54:31 21° WSW 23:54:31 21° WSW visible
02 Mar 10.2 20:00:40 10° SW 20:21:44 39° S 20:30:08 26° SE visible
02 Mar 10.3 22:31:43 10° WSW 22:47:25 32° SSW 22:47:25 32° SSW visible
03 Mar 10.6 18:47:07 10° SW 19:08:50 38° SSE 19:23:01 13° ESE visible
03 Mar 10.1 21:16:41 10° WSW 21:36:29 38° SSW 21:40:19 35° SSE visible
03 Mar 10.8 23:49:28 10° W 23:57:36 20° WSW 23:57:36 20° WSW visible
04 Mar 10.3 20:02:11 10° WSW 20:23:57 41° S 20:33:11 25° SE visible
04 Mar 10.3 22:33:44 10° W 22:50:28 31° SSW 22:50:28 31° SSW visible
05 Mar 10.7 18:48:24 10° SW 19:10:55 41° S 19:26:02 13° ESE visible
05 Mar 10.2 21:18:31 10° WSW 21:38:39 38° SSW 21:43:19 33° S visible
